Voltar ao catálogo

CZ-6A DEB

AtivoSSO
NORAD 55199·DEBRIS·🇨🇳 China

Lançado Nov 11, 2022 de Taiyuan Satellite Launch Center

Loading…

Próximas Passagens (próximas 24 horas)

TLE

AtualizadoSource: Space-Track

Época: Sep 14, 2026, 11:30 UTC

1 55199U 22151VQ  26257.47949550  .00001887  00000-0  86050-3 0  9991
2 55199  98.8081 267.7419 0044329  63.2262 297.3441 14.22295502193267

Acompanhe CZ-6A DEB em tempo real com AllMySat

Download on the App Store